Weather History for Paris / Le Bourget, France

Change the Weather History Date:

Friday, April 12, 2013

  Actual Average Record
Temperature  
Mean Temperature 52 °F -  
Max Temperature 59 °F 61 °F - ()
Min Temperature 46 °F 45 °F - ()
Degree Days  
Heating Degree Days 12    
Growing Degree Days 2 (Base 50)    
Moisture  
Dew Point 44 °F    
Average Humidity 76    
Maximum Humidity 87    
Minimum Humidity 51    
Precipitation  
Precipitation 0.00 in 0.07 in - ()
Sea Level Pressure  
Sea Level Pressure 29.64 in    
Wind  
Wind Speed 12 mph ()    
Max Wind Speed 22 mph    
Max Gust Speed 36 mph    
Visibility 6.2 miles    
Events Rain , Thunderstorm    
T = Trace of Precipitation, MM = Missing Value Source: Averaged Metar Reports

Daily Weather History Graph

Daily Weather History Graph

Search for Another Location

Airport:

Trip Planner

Search our weather history database for the weather conditions in past years. The results will help you decide how hot, cold, wet, or windy it might be!

Date:

Astronomy

Apr. 12, 2013 Rise Set
Actual Time 7:05 AM CEST 8:37 PM CEST
Civil Twilight 6:32 AM CEST 9:10 PM CEST
Nautical Twilight 5:51 AM CEST 9:51 PM CEST
Astronomical Twilight 5:08 AM CEST 10:35 PM CEST
Moon 7:54 AM CEST (4/12) 11:07 PM CEST (4/12)
Length of Visible Light 14h 38m
Length of Day
13h 32m
Waxing Crescent, 4% of the Moon is Illuminated
Apr 12
Waxing Crescent
Apr 18
First Quarter
Apr 25
Full
May 2
Last Quarter
May 10
New

Hourly Weather History & Observations

Time (CEST) Temp. Windchill Dew Point Humidity Pressure Visibility Wind Dir Wind Speed Gust Speed Precip Events Conditions
12:00 AM 51.8 °F - 46.4 °F 82% 29.59 in 6.2 mi WSW 8.1 mph - N/A   Overcast
12:30 AM 51.8 °F - 46.4 °F 82% 29.59 in 6.2 mi SW 10.4 mph - N/A   Overcast
1:00 AM 51.8 °F - 46.4 °F 82% 29.62 in 6.2 mi SW 12.7 mph - N/A   Mostly Cloudy
1:30 AM 50.0 °F - 46.4 °F 87% 29.59 in 6.2 mi SW 13.8 mph - N/A   Mostly Cloudy
2:00 AM 50.0 °F - 44.6 °F 82% 29.62 in 6.2 mi SW 10.4 mph - N/A   Partly Cloudy
2:30 AM 50.0 °F - 44.6 °F 82% 29.62 in 6.2 mi SW 12.7 mph - N/A   Mostly Cloudy
3:00 AM 50.0 °F - 44.6 °F 82% 29.62 in 6.2 mi SW 12.7 mph - N/A   Mostly Cloudy
3:30 AM 50.0 °F - 44.6 °F 82% 29.62 in 6.2 mi SW 12.7 mph - N/A   Unknown
4:00 AM 50.0 °F - 44.6 °F 82% 29.62 in 6.2 mi SSW 11.5 mph - N/A   Mostly Cloudy
4:30 AM 50.0 °F - 44.6 °F 82% 29.62 in 6.2 mi SSW 10.4 mph - N/A   Overcast
5:00 AM 50.0 °F - 44.6 °F 82% 29.62 in 6.2 mi SSW 11.5 mph - N/A   Overcast
5:30 AM 50.0 °F - 42.8 °F 76% 29.59 in 6.2 mi SSW 16.1 mph - N/A   Overcast
6:00 AM 50.0 °F - 42.8 °F 76% 29.59 in 6.2 mi SSW 15.0 mph - N/A   Overcast
6:30 AM 50.0 °F - 44.6 °F 82% 29.59 in 6.2 mi SSW 15.0 mph - N/A   Overcast
7:00 AM 50.0 °F - 44.6 °F 82% 29.59 in 6.2 mi SSW 18.4 mph - N/A   Mostly Cloudy
7:30 AM 50.0 °F - 44.6 °F 82% 29.59 in 6.2 mi SSW 18.4 mph - N/A   Overcast
8:00 AM 50.0 °F - 44.6 °F 82% 29.59 in 6.2 mi SSW 16.1 mph - N/A   Overcast
8:30 AM 51.8 °F - 44.6 °F 76% 29.56 in 6.2 mi SSW 18.4 mph - N/A   Overcast
9:00 AM 51.8 °F - 44.6 °F 76% 29.56 in 6.2 mi SSW 18.4 mph - N/A   Overcast
9:30 AM 51.8 °F - 44.6 °F 76% 29.59 in 6.2 mi SSW 19.6 mph - N/A   Overcast
10:00 AM 50.0 °F - 46.4 °F 87% 29.59 in 6.2 mi SSW 15.0 mph - N/A Rain Light Rain
10:30 AM 51.8 °F - 46.4 °F 82% 29.59 in 6.2 mi SSW 16.1 mph - N/A   Overcast
11:00 AM 53.6 °F - 46.4 °F 77% 29.59 in 6.2 mi SW 16.1 mph 28.8 mph N/A   Mostly Cloudy
11:30 AM 53.6 °F - 46.4 °F 77% 29.59 in 6.2 mi SSW 18.4 mph - N/A   Mostly Cloudy
12:00 PM 53.6 °F - 46.4 °F 77% 29.59 in 6.2 mi SW 17.3 mph - N/A   Mostly Cloudy
12:30 PM 55.4 °F - 46.4 °F 72% 29.59 in 6.2 mi SW 18.4 mph - N/A   Mostly Cloudy
1:00 PM 57.2 °F - 44.6 °F 63% 29.59 in 6.2 mi WSW 15.0 mph - N/A   Mostly Cloudy
1:30 PM 57.2 °F - 42.8 °F 59% 29.59 in 6.2 mi WSW 19.6 mph - N/A   Mostly Cloudy
2:00 PM 59.0 °F - 42.8 °F 55% 29.59 in 6.2 mi SW 20.7 mph - N/A   Mostly Cloudy
2:30 PM 59.0 °F - 41.0 °F 51% 29.59 in 6.2 mi WSW 21.9 mph 35.7 mph N/A   Mostly Cloudy
3:00 PM 59.0 °F - 41.0 °F 51% 29.59 in 6.2 mi SW 18.4 mph - N/A   Mostly Cloudy
3:30 PM 51.8 °F - 46.4 °F 82% 29.62 in 6.2 mi WNW 17.3 mph 29.9 mph N/A Rain Light Rain
4:00 PM 53.6 °F - 46.4 °F 77% 29.65 in 6.2 mi WSW 13.8 mph - N/A Rain , Thunderstorm Light Thunderstorms and Rain
4:30 PM 57.2 °F - 46.4 °F 67% 29.65 in 6.2 mi SW 13.8 mph - N/A   Unknown
5:00 PM 55.4 °F - 42.8 °F 63% 29.65 in 6.2 mi West 19.6 mph - N/A   Mostly Cloudy
5:30 PM 57.2 °F - 42.8 °F 59% 29.65 in 6.2 mi WSW 13.8 mph - N/A   Mostly Cloudy
6:00 PM 55.4 °F - 42.8 °F 63% 29.65 in 6.2 mi SW 9.2 mph - N/A   Unknown
6:30 PM 46.4 °F 40.4 °F 39.2 °F 76% 29.68 in 6.2 mi WNW 13.8 mph 27.6 mph N/A Rain , Thunderstorm Thunderstorms and Rain
7:00 PM 50.0 °F - 44.6 °F 82% 29.71 in 6.2 mi SSW 6.9 mph - N/A Thunderstorm Overcast
7:30 PM 50.0 °F - 42.8 °F 76% 29.71 in 6.2 mi WSW 8.1 mph - N/A   Mostly Cloudy
8:00 PM 50.0 °F - 44.6 °F 82% 29.71 in 6.2 mi West 11.5 mph - N/A Rain Light Rain
8:30 PM 50.0 °F - 44.6 °F 82% 29.74 in 6.2 mi WSW 16.1 mph - N/A   Scattered Clouds
9:00 PM 50.0 °F - 42.8 °F 76% 29.77 in 6.2 mi WSW 10.4 mph - N/A   Unknown
9:30 PM 50.0 °F - 42.8 °F 76% 29.80 in 6.2 mi WSW 9.2 mph - N/A   Unknown
10:00 PM 50.0 °F - 42.8 °F 76% 29.83 in 6.2 mi WSW 9.2 mph - N/A   Unknown
10:30 PM 48.2 °F - 42.8 °F 82% 29.83 in 6.2 mi SW 5.8 mph - N/A   Unknown
11:00 PM 50.0 °F - 42.8 °F 76% 29.86 in 6.2 mi SW 6.9 mph - N/A   Unknown
11:30 PM 50.0 °F - 42.8 °F 76% 29.86 in 6.2 mi SW 6.9 mph - N/A   Unknown